CZ-6A DEB, 60683

Orbit data source: Space-Track

CZ-6A DEB, 60683 is space debris in LEO originally from a launch on Tue, 06 Aug 2024 UTC launched from the Taiyaun Space Center, China (TSC). Debris objects in space refer to the collection of defunct objects orbiting the Earth. Examples of debris include non-operational satellites, rocket bodies, and fragments generated from explosions, collisions, or faulty payload assembly.

Loading next visibility...
Identifier
60683, 2024-140CL
Orbit
LEO
Country
Flag of CNCN / PRC
Related business
Manufacturer
SAST
Mission
Spacecraft
Bus & Motor
Unknown
Mass
Unknown
Launch date (UTC)
2024-08-06 (2 years ago)
Launch vehicle
Unknown
Launch site
Taiyaun Space Center, China (TSC)
Object type
Payload
Rocket body
Debris
Shape & HBR
Unknown shape, 0.2 m
Radar Cross Section
Medium (>0.1 m² and <1 m²)

Expand to show TLE details & history
Last TLE update: 7 hours ago

TLE from 7 hours ago
0 CZ-6A DEB
1 60683U 24140CL  26118.86523690  .00001439  00000-0  58922-3 0  9997
2 60683  88.9984 279.7961 0027249   8.4405 351.7241 14.26516022 89411
Epoch: 2026-04-28T20:45Z
TLE epoch observation values (Epoch: 2026-04-28T20:45:56.468Z)
Latitude
-0.00003°
Longitude
111.4764°
Altitude
787.094 km
Speed
7.47 km/s
True Right ascension
18h 39m 11s
True Declination
0° 00' 00"
Sunlit
Object was in daylight at epoch
Visualization orbit readout
Latitude
Unknown
Longitude
Unknown
Altitude
Unknown
Speed
Unknown
Apparent Right ascension
Unknown
Apparent Declination
Unknown
Sunlit
N/A
Visualization observer readout
Local Sidereal Time
10:59:57
Azimuth
Unknown
Elevation
Unknown
Doppler factor
Unknown
Orbital elements
Apogee altitude
819.903 km
Perigee altitude
780.781 km
Semi-major axis
7,178.479 km
Eccentricity
0.00272
Inclination
88.9984°
RAAN
279.7961°
Arg. of periapsis
8.4405°
True anomaly
351.679°
Mean anomaly
351.7241°
Eccentric anomaly
351.70157°
Mean motion
3.56857 °/min
Orbital period
100.88 mins
BSTAR
0.00058922
Loading maneuver chart data...
Computing Atmospheric mass density...
Loading historical data...
Loading historical data...
Loading historical data...
Loading historical data...
Loading historical data...
Loading historical data...
Loading historical data...

Documentation

Showing up to 5 results
|